Regional Weather Roundup
Issued by NWS

Home | Current Version | Previous Version | Graphics & Text | Print | Product List | Glossary On
Versions: 1 2 3 4 5 6 7 8 9 10 11 12 13 14 15 16 17 18 19 20 21 22 23 24 25 26 27 28 29 30 31 32 33 34 35 36 37 38 39 40 41 42 43 44 45 46 47 48 49 50
000
ASUS43 KLSX 271957
RWRMO

WEATHER SUMMARY FOR MISSOURI
NATIONAL WEATHER SERVICE SPRINGFIELD MO
300 PM CDT TUE JUN 27 2017

NOTE: "FAIR" INDICATES FEW OR NO CLOUDS BELOW 12,000 FEET WITH NO
       SIGNIFICANT WEATHER AND/OR OBSTRUCTIONS TO VISIBILITY.
       CURRENT SKY AND/OR WEATHER CONDITIONS ARE NOT AVAILABLE FOR
       CHILLICOTHE AND FARMINGTON.

MOZ001>031-035>038-043-044-053-054-272100-
...NORTHERN AND WESTERN MISSOURI...

CITY           SKY/WX    TMP DP  RH WIND       PRES   REMARKS
KANSAS CTY INT PTSUNNY   79  64  60 SE13      30.00F
LEE`S SUMMIT   MOSUNNY   79  64  60 S9G20     30.02F
ST JOSEPH      MOSUNNY   78  64  61 SE13      29.99F
CHILLICOTHE      N/A     79  60  52 S10G20    30.04F

$$
MOZ066>068-077>081-088>096-101>105-272100-
...SOUTHWEST MISSOURI...

CITY           SKY/WX    TMP DP  RH WIND       PRES   REMARKS
SPRINGFIELD    CLOUDY    80  64  58 S8        30.06F
JOPLIN         CLOUDY    83  68  60 S8        30.03F
BRANSON        PTSUNNY   81  63  54 CALM      30.08F

$$
MOZ032>034-039>042-045>050-055>058-069>072-272100-
...CENTRAL MISSOURI...

CITY           SKY/WX    TMP DP  RH WIND       PRES   REMARKS
COLUMBIA       NOT AVBL
JEFFERSON CITY SUNNY     78  58  49 SE9       30.06F
ROLLA          MOSUNNY   79  58  48 E7        30.07F
SEDALIA        MOSUNNY   80  66  62 SE9       30.05F

$$
MOZ051-052-059>065-272100-
...EAST CENTRAL MISSOURI...

CITY           SKY/WX    TMP DP  RH WIND       PRES   REMARKS
ST LOUIS INTL  MOSUNNY   81  50  33 CALM      30.08F

$$
MOZ072>076-082>087-097>100-106>115-272100-
...SOUTH CENTRAL AND SOUTHEAST MISSOURI...

CITY           SKY/WX    TMP DP  RH WIND       PRES   REMARKS
CAPE GIRARDEAU SUNNY     80  56  43 VRB5      30.09F
POPLAR BLUFF   MOSUNNY   79  61  53 VRB3      30.09F
WEST PLAINS    PTSUNNY   78  61  55 S9        30.11F

$$



USA.gov is the U.S. government's official web portal to all federal, state and local government web resources and services.